Погода в Чыргакы

Россия / Республика Тыва     51°03′53″N   91°00′22″E
темп.,
°C
ветер,
м/с
пор.,
м/с
влажн.,
%
обл.,
%
осадки,
мм/ч
давл.,
гПа
погр.,
м
17 апреля, сб
сб1701:00+5ю33280 0.0 101325
04:00+4ю32292 0.0 101215
07:00+4ю223114 0.0 101225
10:00+10сз362120 0.0 1009852
13:00+13з101315100 0.0 10073193
16:00+12з111423100 0.0 10073179
19:00+10сз7133292 0.0 10082576
22:00+5ю1145100 0.1 1014244
18 апреля, вс
вс1801:00+2ююв117017 0.3 101627
04:00+1в1175100 0.1 1016305
07:000св018122 0.1 101770
10:00+4ссз22575 0.0 1015685
13:00+9ссз48302 0.0 10101934
16:00+12з101421100 0.0 10083718
19:00+10з813244 0.0 10092467
22:00+6юз49325 0.0 1011199
19 апреля, пн
пн1901:00+4ю454135 0.0 101153
04:00+3ю33336 0.0 101031
07:00+4ю343110 0.0 100960
10:00+11зюз6151942 0.0 10042702
13:00+14зюз8172048 0.0 10013342
16:00+13зсз111327100 0.0 10013051
19:00+7с444898 0.2 10061164
22:00+4всв23615 0.1 1007251
20 апреля, вт
вт2001:00−1св356283 0.1 1011368
04:00−4ссв2290100 0.1 1014260
07:00−4ссв3489100 0.6 1015484
10:00−4с4487100 1.6 1015605
13:00−4ссв3388100 3.1 1015578
16:00−4ссв3386100 1.5 1015614
19:00−4св2376100 1.7 1015607
22:00−5св1395100 0.4 1018275
21 апреля, ср
ср2101:00−6ссв2492100 1.1 1018451
04:00−8ссв1293100 0.4 102193
07:00−9всв018693 0.6 102392
10:00−6с326198 0.1 10221085
13:00−4с325499 0.1 10211297
16:00−2ссв324618 0.0 10181166
19:00−3св224720 0.0 1019709
22:00−7ю326737 0.0 102223